Location: Unspecified
(0.0000°N, 0.0000°E)
Time: 02:27:13
(UTC+02:00)

Iridium 84 - Visible Passes

Search period start: 24 July 2014 00:00
Search period end: 03 August 2014 00:00
Orbit: 776 x 779 km, 86.4° (Epoch: 23 July)

Date Brightness Start Highest point End Pass type
(mag) Time Alt. Az. Time Alt. Az. Time Alt. Az.
24 Jul 7.9 22:34:50 10° N 22:35:30 14° N 22:35:30 14° N visible
25 Jul 7.6 22:01:44 10° NNE 22:02:32 14° NNE 22:02:32 14° NNE visible
26 Jul 8.3 23:09:23 10° NW 23:10:06 13° NW 23:10:06 13° NW visible
27 Jul 7.3 22:35:01 10° NNW 22:37:12 25° NNW 22:37:12 25° NNW visible
28 Jul 6.6 22:01:29 10° N 22:04:21 33° NNE 22:04:21 33° NNE visible
29 Jul 6.7 21:28:43 10° NNE 21:31:34 25° ENE 21:31:34 25° ENE visible
29 Jul 8.3 23:10:41 10° NW 23:12:05 14° WNW 23:12:05 14° WNW visible
30 Jul 7.3 20:57:23 10° ENE 20:58:50 13° E 20:58:50 13° E visible
30 Jul 7.1 22:35:30 10° NNW 22:39:21 32° WNW 22:39:21 32° WNW visible
31 Jul 5.5 22:01:30 10° N 22:06:41 76° W 22:06:41 76° W visible
01 Aug 5.7 21:28:15 10° NNE 21:33:14 48° E 21:34:07 43° ESE visible
02 Aug 6.7 20:55:52 10° NE 20:59:47 22° E 21:01:39 18° ESE visible
02 Aug 7.8 22:36:22 10° NW 22:40:12 21° W 22:42:11 17° WSW visible
